TimeCDT,TemperatureF,Dew PointF,Humidity,Sea Level PressureIn,VisibilityMPH,Wind Direction,Wind SpeedMPH,Gust SpeedMPH,PrecipitationIn,Events,Conditions,WindDirDegrees,DateUTC
12:54 AM,70.0,66.0,87,29.94,10.0,Calm,Calm,-,N/A,,Scattered Clouds,0,2013-05-18 05:54:00
1:54 AM,69.1,64.9,87,29.92,10.0,Calm,Calm,-,N/A,,Scattered Clouds,0,2013-05-18 06:54:00
2:54 AM,68.0,64.9,90,29.92,9.0,Calm,Calm,-,N/A,,Scattered Clouds,0,2013-05-18 07:54:00
3:54 AM,72.0,66.0,81,29.92,9.0,East,4.6,-,N/A,,Scattered Clouds,90,2013-05-18 08:54:00
4:28 AM,71.6,66.2,83,29.94,9.0,SE,3.5,-,N/A,,Mostly Cloudy,140,2013-05-18 09:28:00
4:54 AM,70.0,66.0,87,29.94,9.0,East,3.5,-,N/A,,Mostly Cloudy,90,2013-05-18 09:54:00
5:54 AM,70.0,66.9,90,29.95,4.0,Calm,Calm,-,N/A,,Mostly Cloudy,0,2013-05-18 10:54:00
6:54 AM,72.0,68.0,87,29.97,5.0,ESE,3.5,-,N/A,,Overcast,110,2013-05-18 11:54:00
7:47 AM,73.4,69.8,88,29.99,5.0,SE,4.6,-,N/A,,Mostly Cloudy,140,2013-05-18 12:47:00
7:54 AM,73.0,69.1,87,29.98,5.0,SSE,5.8,-,N/A,,Mostly Cloudy,150,2013-05-18 12:54:00
8:43 AM,75.2,69.8,83,30.00,8.0,South,4.6,-,N/A,,Overcast,170,2013-05-18 13:43:00
8:54 AM,75.0,70.0,84,30.00,8.0,South,6.9,-,N/A,,Overcast,180,2013-05-18 13:54:00
9:23 AM,77.0,71.6,83,30.00,7.0,SSW,6.9,-,N/A,,Overcast,210,2013-05-18 14:23:00
9:54 AM,75.9,71.1,85,29.99,6.0,SSW,6.9,-,N/A,,Haze,210,2013-05-18 14:54:00
10:13 AM,75.2,71.6,89,29.99,2.0,SW,5.8,-,N/A,,Haze,220,2013-05-18 15:13:00
10:54 AM,75.9,71.1,85,29.99,2.0,WSW,6.9,-,N/A,,Haze,240,2013-05-18 15:54:00
11:24 AM,78.8,71.6,78,29.99,2.0,South,3.5,-,N/A,,Haze,190,2013-05-18 16:24:00
11:54 AM,80.1,72.0,76,29.98,2.0,SW,4.6,-,N/A,,Haze,230,2013-05-18 16:54:00
12:15 PM,80.6,73.4,79,29.99,7.0,West,3.5,-,N/A,,Scattered Clouds,270,2013-05-18 17:15:00
12:33 PM,80.6,73.4,79,29.98,7.0,South,4.6,-,N/A,,Mostly Cloudy,180,2013-05-18 17:33:00
12:54 PM,80.1,72.0,76,29.97,7.0,SW,5.8,-,N/A,,Overcast,230,2013-05-18 17:54:00
1:54 PM,82.4,73.4,74,29.96,8.0,South,8.1,-,N/A,,Mostly Cloudy,180,2013-05-18 18:54:00
2:54 PM,82.9,73.0,72,29.95,8.0,South,11.5,-,N/A,,Mostly Cloudy,180,2013-05-18 19:54:00
3:54 PM,82.0,73.0,74,29.93,8.0,South,8.1,-,N/A,,Mostly Cloudy,190,2013-05-18 20:54:00
4:48 PM,84.2,71.6,66,29.93,9.0,South,8.1,-,N/A,,Mostly Cloudy,190,2013-05-18 21:48:00
4:54 PM,84.0,72.0,67,29.92,9.0,South,12.7,19.6,N/A,,Mostly Cloudy,190,2013-05-18 21:54:00
5:54 PM,82.9,72.0,69,29.91,10.0,SSW,11.5,-,N/A,,Mostly Cloudy,200,2013-05-18 22:54:00
6:46 PM,82.4,73.4,74,29.92,9.0,South,8.1,-,N/A,,Mostly Cloudy,170,2013-05-18 23:46:00
6:54 PM,82.0,73.0,74,29.91,9.0,South,8.1,-,N/A,,Mostly Cloudy,180,2013-05-18 23:54:00
7:54 PM,80.1,73.0,79,29.92,8.0,South,6.9,-,N/A,,Mostly Cloudy,180,2013-05-19 00:54:00
8:54 PM,80.1,73.0,79,29.92,9.0,South,6.9,-,N/A,,Mostly Cloudy,180,2013-05-19 01:54:00
9:54 PM,80.1,73.0,79,29.92,9.0,SSE,6.9,-,N/A,,Mostly Cloudy,150,2013-05-19 02:54:00
10:54 PM,78.8,73.4,83,29.93,8.0,SSE,8.1,-,N/A,,Mostly Cloudy,160,2013-05-19 03:54:00
11:54 PM,78.1,73.0,84,29.91,8.0,South,6.9,-,N/A,,Mostly Cloudy,170,2013-05-19 04:54:00